Regional Weather Roundup
Issued by NWS

Home | Current Version | Previous Version | Graphics & Text | Print | Product List | Glossary Off
Versions: 1 2 3 4 5 6 7 8 9 10 11 12 13 14 15 16 17 18 19 20 21 22 23 24 25 26 27 28 29 30 31 32 33 34 35 36 37 38 39 40 41 42 43 44 45 46 47 48 49 50

000
ASUS43 KTOP 221559
RWRKS

WEATHER ROUNDUP FOR KANSAS
NATIONAL WEATHER SERVICE GOODLAND KS
1000 AM CST MON DEC 22 2014

NOTE:  "FAIR" INDICATES FEW OR NO CLOUDS BELOW 12,000 FEET WITH NO
SIGNIFICANT WEATHER AND/OR OBSTRUCTIONS TO VISIBILITY.

KSZ001>006-013>018-027>032-041>047-221700-
NORTHWEST KANSAS

CITY           SKY/WX    TMP DP  RH WIND       PRES   REMARKS
GOODLAND       PTSUNNY   37  30  75 NW13      29.70F WCI  29
HAYS           PTSUNNY   43  30  61 NW14      29.62R
HILL CITY      PTSUNNY   45  32  60 NW16G23   29.64R
RUSSELL        CLOUDY    43  38  82 NW16      29.59R
$$

KSZ061>065-074>080-084>089-221700-
SOUTHWEST KANSAS

CITY           SKY/WX    TMP DP  RH WIND       PRES   REMARKS
DODGE CITY     SUNNY     45  29  53 NW23G35   29.67R
ELKHART          N/A    N/A N/A N/A MISG        N/A
GARDEN CITY    SUNNY     43  29  57 NW24G31   29.70R
GREAT BEND     CLOUDY    43  34  70 NW14G21   29.63R
LIBERAL        SUNNY     46  34  61 NW23G29   29.74R
$$

KSZ066>073-081>083-090>101-221700-
SOUTHEAST KANSAS

CITY           SKY/WX    TMP DP  RH WIND       PRES   REMARKS
CHANUTE        CLOUDY    46  45  96 S10       29.58S FOG
COFFEYVILLE    CLOUDY    47  47 100 S7        29.59S FOG
HUTCHINSON     PTSUNNY   44  39  82 NW12      29.58R
MEDICINE LODGE   N/A     44  38  79 NW12      29.61R
NEWTON         CLOUDY    45  41  87 W9        29.57S
PARSONS        CLOUDY    47  47 100 S6        29.59S FOG
WICHITA INTL   CLOUDY    48  45  89 W9        29.58R FOG
WICHITA JABRA  CLOUDY    46  45  96 W8        29.57R
WINFIELD       CLOUDY    46  46 100 SW5       29.59R FOG
$$

KSZ007>012-019>026-033>040-048>060-102>105-221700-
NORTHEAST KANSAS

CITY           SKY/WX    TMP DP  RH WIND       PRES   REMARKS
CONCORDIA      LGT RAIN  42  39  89 NW9       29.54R
EMPORIA        LGT RAIN  44  44 100 S12       29.55S
LAWRENCE       LGT RAIN  44  42  93 S9        29.57S FOG
MANHATTAN      CLOUDY    45  44  97 SW9       29.52F
OLATHE IND     CLOUDY    43  42  97 S13       29.57F FOG
OLATHE EXE     CLOUDY    42  42 100 S9        29.56F FOG
SALINA         CLOUDY    44  38  79 W16       29.57R
TOPEKA BILLARD LGT RAIN  46  44  93 S8        29.55F FOG
TOPEKA FORBES  LGT RAIN  46  43  89 S9        29.54F FOG
$$



USA.gov is the U.S. government's official web portal to all federal, state and local government web resources and services.